Time,TemperatureF,DewpointF,PressureIn,WindDirection,WindDirectionDegrees,WindSpeedMPH,WindSpeedGustMPH,Humidity,HourlyPrecipIn,Conditions,Clouds,dailyrainin,SoftwareType,DateUTC
2013-03-18 00:03:00,18.0,10.0,30.42,NW,305,0.0,1.0,70,0.00,,,0.03,,2013-03-18 04:03:00,
2013-03-18 00:13:00,18.0,10.0,30.42,NW,305,0.0,1.0,70,0.00,,,0.03,,2013-03-18 04:13:00,
2013-03-18 00:23:00,18.0,11.0,30.41,NW,305,0.0,1.0,73,0.00,,,0.03,,2013-03-18 04:23:00,
2013-03-18 00:33:00,17.0,10.0,30.42,NW,305,0.0,1.0,72,0.00,,,0.03,,2013-03-18 04:33:00,
2013-03-18 00:42:00,17.0,10.0,30.42,NW,305,0.0,1.0,72,0.00,,,0.03,,2013-03-18 04:42:00,
2013-03-18 00:52:00,18.0,11.0,30.41,NW,305,0.0,1.0,72,0.00,,,0.03,,2013-03-18 04:52:00,
2013-03-18 01:03:00,17.0,10.0,30.42,NW,305,0.0,1.0,74,0.00,,,0.03,,2013-03-18 05:03:00,
2013-03-18 01:12:00,17.0,10.0,30.42,NW,305,0.0,1.0,74,0.00,,,0.03,,2013-03-18 05:12:00,
2013-03-18 01:22:00,17.0,10.0,30.42,NW,305,0.0,1.0,75,0.00,,,0.03,,2013-03-18 05:22:00,
2013-03-18 01:32:00,17.0,10.0,30.41,NW,305,1.0,2.0,73,0.00,,,0.03,,2013-03-18 05:32:00,
2013-03-18 01:43:00,17.0,10.0,30.41,NW,305,1.0,2.0,73,0.00,,,0.03,,2013-03-18 05:43:00,
2013-03-18 01:52:00,17.0,9.0,30.41,WNW,302,1.0,2.0,71,0.00,,,0.03,,2013-03-18 05:52:00,
2013-03-18 02:02:00,17.0,11.0,30.41,WSW,254,1.0,2.0,77,0.00,,,0.03,,2013-03-18 06:02:00,
2013-03-18 02:12:00,17.0,11.0,30.41,WSW,254,1.0,2.0,77,0.00,,,0.03,,2013-03-18 06:12:00,
2013-03-18 02:22:00,18.0,12.0,30.41,South,169,1.0,2.0,76,0.00,,,0.03,,2013-03-18 06:22:00,
2013-03-18 02:32:00,18.0,11.0,30.41,SSE,148,1.0,3.0,73,0.00,,,0.03,,2013-03-18 06:32:00,
2013-03-18 02:42:00,18.0,11.0,30.41,SSE,148,1.0,3.0,73,0.00,,,0.03,,2013-03-18 06:42:00,
2013-03-18 02:52:00,18.0,11.0,30.41,SE,134,1.0,3.0,73,0.00,,,0.03,,2013-03-18 06:52:00,
2013-03-18 03:02:00,19.0,11.0,30.40,ESE,116,1.0,4.0,69,0.00,,,0.03,,2013-03-18 07:02:00,
2013-03-18 03:12:00,19.0,11.0,30.40,ESE,116,1.0,4.0,69,0.00,,,0.03,,2013-03-18 07:12:00,
2013-03-18 03:22:00,19.0,10.0,30.39,ESE,115,2.0,4.0,68,0.00,,,0.03,,2013-03-18 07:22:00,
2013-03-18 03:33:00,19.0,11.0,30.39,ESE,115,2.0,4.0,70,0.00,,,0.03,,2013-03-18 07:33:00,
2013-03-18 03:42:00,19.0,11.0,30.39,ESE,115,2.0,4.0,70,0.00,,,0.03,,2013-03-18 07:42:00,
2013-03-18 03:52:00,18.0,11.0,30.38,ESE,121,2.0,4.0,72,0.00,,,0.03,,2013-03-18 07:52:00,
2013-03-18 04:02:00,18.0,11.0,30.37,ESE,115,2.0,4.0,72,0.00,,,0.03,,2013-03-18 08:02:00,
2013-03-18 04:12:00,18.0,11.0,30.37,ESE,115,2.0,4.0,72,0.00,,,0.03,,2013-03-18 08:12:00,
2013-03-18 04:22:00,18.0,11.0,30.37,ESE,113,2.0,4.0,72,0.00,,,0.03,,2013-03-18 08:22:00,
2013-03-18 04:32:00,18.0,10.0,30.37,ESE,114,2.0,4.0,71,0.00,,,0.03,,2013-03-18 08:32:00,
2013-03-18 04:43:00,18.0,10.0,30.37,ESE,114,2.0,4.0,71,0.00,,,0.03,,2013-03-18 08:43:00,
2013-03-18 04:52:00,18.0,10.0,30.37,ESE,116,2.0,4.0,71,0.00,,,0.03,,2013-03-18 08:52:00,
2013-03-18 05:02:00,18.0,11.0,30.37,ESE,117,2.0,4.0,72,0.00,,,0.03,,2013-03-18 09:02:00,
2013-03-18 05:13:00,18.0,11.0,30.37,ESE,117,2.0,4.0,72,0.00,,,0.03,,2013-03-18 09:13:00,
2013-03-18 05:22:00,18.0,11.0,30.37,SE,127,2.0,5.0,72,0.00,,,0.03,,2013-03-18 09:22:00,
2013-03-18 05:33:00,17.0,10.0,30.38,ESE,121,1.0,3.0,74,0.00,,,0.03,,2013-03-18 09:33:00,
2013-03-18 05:43:00,17.0,10.0,30.38,ESE,121,1.0,3.0,74,0.00,,,0.03,,2013-03-18 09:43:00,
2013-03-18 05:53:00,17.0,11.0,30.38,ESE,123,2.0,4.0,76,0.00,,,0.03,,2013-03-18 09:53:00,
2013-03-18 06:03:00,17.0,11.0,30.38,ESE,121,1.0,4.0,76,0.00,,,0.03,,2013-03-18 10:03:00,
2013-03-18 06:13:00,17.0,11.0,30.38,ESE,121,1.0,4.0,76,0.00,,,0.03,,2013-03-18 10:13:00,
2013-03-18 06:23:00,17.0,11.0,30.39,ESE,121,3.0,6.0,77,0.00,,,0.03,,2013-03-18 10:23:00,
2013-03-18 06:33:00,17.0,11.0,30.39,ESE,123,4.0,8.0,76,0.00,,,0.03,,2013-03-18 10:33:00,
2013-03-18 06:42:00,17.0,11.0,30.39,ESE,123,4.0,8.0,76,0.00,,,0.03,,2013-03-18 10:42:00,
2013-03-18 06:52:00,18.0,12.0,30.39,SE,129,3.0,8.0,76,0.00,,,0.03,,2013-03-18 10:52:00,
2013-03-18 07:03:00,18.0,12.0,30.38,SE,126,2.0,7.0,76,0.00,,,0.03,,2013-03-18 11:03:00,
2013-03-18 07:13:00,18.0,12.0,30.38,SE,126,2.0,7.0,76,0.00,,,0.03,,2013-03-18 11:13:00,
2013-03-18 07:22:00,18.0,12.0,30.38,ESE,119,2.0,8.0,76,0.00,,,0.03,,2013-03-18 11:22:00,
2013-03-18 07:32:00,18.0,12.0,30.38,ESE,113,2.0,7.0,76,0.00,,,0.03,,2013-03-18 11:32:00,
2013-03-18 07:42:00,18.0,12.0,30.38,ESE,113,2.0,7.0,76,0.00,,,0.03,,2013-03-18 11:42:00,
2013-03-18 07:52:00,18.0,12.0,30.38,ESE,107,3.0,7.0,76,0.00,,,0.03,,2013-03-18 11:52:00,
2013-03-18 08:03:00,18.0,12.0,30.38,ESE,111,2.0,8.0,77,0.00,,,0.03,,2013-03-18 12:03:00,
2013-03-18 08:13:00,18.0,12.0,30.38,ESE,111,2.0,8.0,77,0.00,,,0.03,,2013-03-18 12:13:00,
2013-03-18 08:22:00,19.0,13.0,30.38,ESE,117,4.0,7.0,76,0.00,,,0.03,,2013-03-18 12:22:00,
2013-03-18 08:32:00,19.0,13.0,30.37,ESE,123,2.0,5.0,77,0.00,,,0.03,,2013-03-18 12:32:00,
2013-03-18 08:43:00,19.0,13.0,30.37,ESE,123,2.0,5.0,77,0.00,,,0.03,,2013-03-18 12:43:00,
2013-03-18 08:52:00,20.0,14.0,30.36,ESE,116,4.0,8.0,76,0.00,,,0.03,,2013-03-18 12:52:00,
2013-03-18 09:03:00,20.0,14.0,30.35,ESE,104,5.0,10.0,77,0.00,,,0.03,,2013-03-18 13:03:00,
2013-03-18 09:12:00,20.0,14.0,30.35,ESE,104,5.0,10.0,77,0.00,,,0.03,,2013-03-18 13:12:00,
2013-03-18 09:22:00,21.0,15.0,30.33,East,95,5.0,11.0,76,0.00,,,0.03,,2013-03-18 13:22:00,
2013-03-18 09:33:00,22.0,15.0,30.32,SE,137,6.0,13.0,74,0.00,,,0.03,,2013-03-18 13:33:00,
2013-03-18 09:42:00,22.0,15.0,30.32,SE,137,6.0,13.0,74,0.00,,,0.03,,2013-03-18 13:42:00,
2013-03-18 09:52:00,22.0,15.0,30.32,SE,137,6.0,13.0,74,0.00,,,0.03,,2013-03-18 13:52:00,
2013-03-18 10:02:00,24.0,14.0,30.30,SE,129,6.0,16.0,66,0.00,,,0.03,,2013-03-18 14:02:00,
2013-03-18 10:12:00,24.0,14.0,30.30,SE,129,6.0,16.0,66,0.00,,,0.03,,2013-03-18 14:12:00,
2013-03-18 10:22:00,25.0,14.0,30.29,ESE,115,6.0,13.0,63,0.00,,,0.03,,2013-03-18 14:22:00,
2013-03-18 10:32:00,25.0,14.0,30.29,ESE,121,8.0,18.0,62,0.00,,,0.02,,2013-03-18 14:32:00,
2013-03-18 10:42:00,25.0,14.0,30.29,ESE,121,8.0,18.0,62,0.00,,,0.02,,2013-03-18 14:42:00,
2013-03-18 10:52:00,26.0,14.0,30.28,SE,138,4.0,17.0,61,0.00,,,0.02,,2013-03-18 14:52:00,
2013-03-18 11:02:00,27.0,15.0,30.28,ESE,118,5.0,12.0,60,0.00,,,0.02,,2013-03-18 15:02:00,
2013-03-18 11:12:00,27.0,15.0,30.28,ESE,118,5.0,12.0,60,0.00,,,0.02,,2013-03-18 15:12:00,
2013-03-18 11:22:00,27.0,14.0,30.27,ESE,121,5.0,13.0,58,0.00,,,0.02,,2013-03-18 15:22:00,
2013-03-18 11:33:00,28.0,16.0,30.26,ESE,103,4.0,14.0,59,0.00,,,0.02,,2013-03-18 15:33:00,
2013-03-18 11:43:00,28.0,16.0,30.26,ESE,103,4.0,14.0,59,0.00,,,0.02,,2013-03-18 15:43:00,
2013-03-18 11:52:00,28.0,15.0,30.25,SE,134,4.0,15.0,58,0.00,,,0.02,,2013-03-18 15:52:00,
2013-03-18 12:03:00,29.0,15.0,30.24,East,92,6.0,15.0,55,0.00,,,0.02,,2013-03-18 16:03:00,
2013-03-18 12:12:00,29.0,15.0,30.24,East,92,6.0,15.0,55,0.00,,,0.02,,2013-03-18 16:12:00,
2013-03-18 12:23:00,29.0,14.0,30.23,ESE,122,6.0,12.0,54,0.00,,,0.02,,2013-03-18 16:23:00,
2013-03-18 12:33:00,29.0,14.0,30.23,East,101,9.0,16.0,52,0.00,,,0.02,,2013-03-18 16:33:00,
2013-03-18 12:42:00,29.0,14.0,30.23,East,101,9.0,16.0,52,0.00,,,0.02,,2013-03-18 16:42:00,
2013-03-18 12:52:00,30.0,14.0,30.22,East,90,7.0,23.0,51,0.00,,,0.02,,2013-03-18 16:52:00,
2013-03-18 13:03:00,30.0,14.0,30.21,East,93,8.0,18.0,51,0.00,,,0.02,,2013-03-18 17:03:00,
2013-03-18 13:12:00,30.0,14.0,30.21,East,93,8.0,18.0,51,0.00,,,0.02,,2013-03-18 17:12:00,
2013-03-18 13:22:00,31.0,15.0,30.19,SE,134,8.0,19.0,51,0.00,,,0.02,,2013-03-18 17:22:00,
2013-03-18 13:32:00,31.0,15.0,30.19,SE,134,8.0,19.0,51,0.00,,,0.02,,2013-03-18 17:32:00,
2013-03-18 13:42:00,31.0,15.0,30.19,SE,134,8.0,19.0,51,0.00,,,0.02,,2013-03-18 17:42:00,
2013-03-18 13:52:00,31.0,14.0,30.18,ESE,116,8.0,15.0,49,0.00,,,0.00,,2013-03-18 17:52:00,
2013-03-18 14:02:00,32.0,15.0,30.16,SE,135,5.0,12.0,50,0.00,,,0.00,,2013-03-18 18:02:00,
2013-03-18 14:12:00,32.0,15.0,30.16,SE,135,5.0,12.0,50,0.00,,,0.00,,2013-03-18 18:12:00,
2013-03-18 14:22:00,32.0,15.0,30.16,SE,135,5.0,12.0,50,0.00,,,0.00,,2013-03-18 18:22:00,
2013-03-18 14:32:00,33.0,17.0,30.15,East,96,5.0,17.0,51,0.00,,,0.00,,2013-03-18 18:32:00,
2013-03-18 14:42:00,33.0,17.0,30.15,East,96,5.0,17.0,51,0.00,,,0.00,,2013-03-18 18:42:00,
2013-03-18 14:52:00,33.0,16.0,30.14,SSE,150,8.0,16.0,50,0.00,,,0.00,,2013-03-18 18:52:00,
2013-03-18 15:03:00,33.0,16.0,30.14,SE,130,6.0,16.0,50,0.00,,,0.00,,2013-03-18 19:03:00,
2013-03-18 15:12:00,33.0,16.0,30.14,SE,130,6.0,16.0,50,0.00,,,0.00,,2013-03-18 19:12:00,
2013-03-18 15:22:00,33.0,16.0,30.14,SE,130,6.0,16.0,50,0.00,,,0.00,,2013-03-18 19:22:00,
2013-03-18 15:33:00,33.0,17.0,30.11,SSE,158,9.0,18.0,51,0.00,,,0.00,,2013-03-18 19:33:00,
2013-03-18 15:42:00,33.0,17.0,30.11,SSE,158,9.0,18.0,51,0.00,,,0.00,,2013-03-18 19:42:00,
2013-03-18 15:52:00,33.0,20.0,30.09,SSW,196,7.0,15.0,59,0.00,,,0.00,,2013-03-18 19:52:00,
2013-03-18 16:03:00,30.0,24.0,30.09,SE,125,7.0,18.0,78,0.00,,,0.00,,2013-03-18 20:03:00,
2013-03-18 16:12:00,30.0,24.0,30.09,SE,125,7.0,18.0,78,0.00,,,0.00,,2013-03-18 20:12:00,
2013-03-18 16:23:00,29.0,25.0,30.08,SE,140,10.0,17.0,83,0.00,,,0.00,,2013-03-18 20:23:00,
2013-03-18 16:33:00,29.0,26.0,30.07,SE,134,7.0,18.0,87,0.00,,,0.00,,2013-03-18 20:33:00,
2013-03-18 16:42:00,29.0,26.0,30.07,SE,134,7.0,18.0,87,0.00,,,0.00,,2013-03-18 20:42:00,
2013-03-18 16:52:00,28.0,25.0,30.05,SE,139,7.0,21.0,88,0.00,,,0.00,,2013-03-18 20:52:00,
2013-03-18 17:02:00,28.0,25.0,30.05,ESE,110,6.0,15.0,89,0.00,,,0.00,,2013-03-18 21:02:00,
2013-03-18 17:12:00,28.0,25.0,30.05,ESE,110,6.0,15.0,89,0.00,,,0.00,,2013-03-18 21:12:00,
2013-03-18 17:22:00,28.0,25.0,30.04,ESE,121,10.0,22.0,89,0.00,,,0.00,,2013-03-18 21:22:00,
2013-03-18 17:33:00,28.0,25.0,30.03,SE,139,7.0,24.0,89,0.00,,,0.00,,2013-03-18 21:33:00,
2013-03-18 17:43:00,28.0,25.0,30.03,SE,139,7.0,24.0,89,0.00,,,0.00,,2013-03-18 21:43:00,
2013-03-18 17:52:00,27.0,24.0,30.01,SE,136,11.0,23.0,89,0.00,,,0.00,,2013-03-18 21:52:00,
2013-03-18 18:03:00,27.0,24.0,30.00,ESE,107,10.0,22.0,88,0.00,,,0.00,,2013-03-18 22:03:00,
2013-03-18 18:13:00,27.0,24.0,30.00,ESE,107,10.0,22.0,88,0.00,,,0.00,,2013-03-18 22:13:00,
2013-03-18 18:23:00,27.0,24.0,29.99,SSE,153,8.0,22.0,88,0.00,,,0.00,,2013-03-18 22:23:00,
2013-03-18 18:33:00,28.0,25.0,29.98,SE,139,6.0,25.0,87,0.00,,,0.00,,2013-03-18 22:33:00,
2013-03-18 18:42:00,28.0,25.0,29.98,SE,139,6.0,25.0,87,0.00,,,0.00,,2013-03-18 22:42:00,
2013-03-18 18:52:00,28.0,25.0,29.98,ESE,113,8.0,21.0,87,0.00,,,0.00,,2013-03-18 22:52:00,
2013-03-18 19:03:00,28.0,24.0,29.98,SSE,149,7.0,22.0,86,0.00,,,0.00,,2013-03-18 23:03:00,
2013-03-18 19:13:00,28.0,24.0,29.98,SSE,149,7.0,22.0,86,0.00,,,0.00,,2013-03-18 23:13:00,
2013-03-18 19:23:00,28.0,24.0,29.97,SE,145,6.0,17.0,85,0.00,,,0.00,,2013-03-18 23:23:00,
2013-03-18 19:33:00,28.0,24.0,29.97,ESE,123,5.0,12.0,84,0.00,,,0.00,,2013-03-18 23:33:00,
2013-03-18 19:42:00,28.0,24.0,29.97,ESE,123,5.0,12.0,84,0.00,,,0.00,,2013-03-18 23:42:00,
2013-03-18 19:52:00,28.0,24.0,29.96,SE,146,8.0,15.0,84,0.00,,,0.00,,2013-03-18 23:52:00,
2013-03-18 20:03:00,28.0,24.0,29.95,SE,146,7.0,13.0,84,0.00,,,0.00,,2013-03-19 00:03:00,
2013-03-18 20:12:00,28.0,24.0,29.95,SE,146,7.0,13.0,84,0.00,,,0.00,,2013-03-19 00:12:00,
2013-03-18 20:23:00,28.0,24.0,29.95,ESE,109,6.0,13.0,86,0.00,,,0.00,,2013-03-19 00:23:00,
2013-03-18 20:32:00,28.0,25.0,29.93,SE,138,7.0,16.0,89,0.00,,,0.00,,2013-03-19 00:32:00,
2013-03-18 20:42:00,28.0,25.0,29.93,SE,138,7.0,16.0,89,0.00,,,0.00,,2013-03-19 00:42:00,
2013-03-18 20:52:00,28.0,26.0,29.93,SSE,161,6.0,14.0,91,0.00,,,0.00,,2013-03-19 00:52:00,
2013-03-18 21:02:00,28.0,26.0,29.92,SE,131,7.0,13.0,92,0.00,,,0.00,,2013-03-19 01:02:00,
2013-03-18 21:12:00,28.0,26.0,29.92,SE,131,7.0,13.0,92,0.00,,,0.00,,2013-03-19 01:12:00,
2013-03-18 21:22:00,28.0,26.0,29.91,ESE,122,7.0,14.0,92,0.00,,,0.00,,2013-03-19 01:22:00,
2013-03-18 21:33:00,28.0,26.0,29.91,SE,127,6.0,13.0,92,0.00,,,0.00,,2013-03-19 01:33:00,
2013-03-18 21:42:00,28.0,26.0,29.91,SE,127,6.0,13.0,92,0.00,,,0.00,,2013-03-19 01:42:00,
2013-03-18 21:52:00,28.0,26.0,29.90,SE,129,4.0,14.0,91,0.00,,,0.00,,2013-03-19 01:52:00,
2013-03-18 22:03:00,28.0,26.0,29.89,ESE,117,4.0,12.0,91,0.00,,,0.00,,2013-03-19 02:03:00,
2013-03-18 22:12:00,28.0,26.0,29.89,ESE,117,4.0,12.0,91,0.00,,,0.00,,2013-03-19 02:12:00,
2013-03-18 22:22:00,28.0,26.0,29.88,SE,133,5.0,12.0,91,0.00,,,0.00,,2013-03-19 02:22:00,
2013-03-18 22:33:00,29.0,27.0,29.87,ESE,103,5.0,14.0,92,0.00,,,0.00,,2013-03-19 02:33:00,
2013-03-18 22:42:00,29.0,27.0,29.87,ESE,103,5.0,14.0,92,0.00,,,0.00,,2013-03-19 02:42:00,
2013-03-18 22:52:00,30.0,28.0,29.85,South,182,4.0,12.0,92,0.00,,,0.00,,2013-03-19 02:52:00,
2013-03-18 23:02:00,31.0,29.0,29.84,SSE,148,4.0,11.0,91,0.00,,,0.00,,2013-03-19 03:02:00,
2013-03-18 23:12:00,31.0,29.0,29.84,SSE,148,4.0,11.0,91,0.00,,,0.00,,2013-03-19 03:12:00,
2013-03-18 23:22:00,31.0,29.0,29.83,SSE,157,5.0,12.0,92,0.00,,,0.00,,2013-03-19 03:22:00,
2013-03-18 23:33:00,32.0,30.0,29.82,South,173,6.0,14.0,92,0.00,,,0.00,,2013-03-19 03:33:00,
2013-03-18 23:43:00,32.0,30.0,29.82,South,173,6.0,14.0,92,0.00,,,0.00,,2013-03-19 03:43:00,
2013-03-18 23:53:00,32.0,30.0,29.82,SSE,152,4.0,11.0,92,0.00,,,0.00,,2013-03-19 03:53:00,